Filtrer par Nom Sexe Groupe d'age
Picarde Baie de Somme GranFondo 1998
RG. DOS. TEMPS CAT RG. POINTS
1 245 KLAES VINCENT 04:55:45:953 C 1 320.00 MEGEVE, FRANCE
2 217 DUGOUCHET DENIS 04:55:50:300 D 1 319.97 CHEF DU PONT, FRANCE
3 1214 VERIS WIM 05:02:10:093 E 1 317.93 Herentals, Belgique
4 174 CAPEL STEPHANE 05:02:18:826 D 2 317.89 COURBEVOIE, FRANCE
5 139 JASSERAND BRUNO 05:02:31:636 D 3 317.82 LA MOTTE, FRANCE
6 172 DUVERGER ERIC 05:02:39:996 E 2 317.77 SEVRAN, FRANCE
7 1201 GRAIRE CHRISTOPHE 05:02:48:500 D 4 317.73 MAROMME LA MARNE, FRANCE
8 166 LOMAS JUSTIN 05:11:29:860 C 2 314.92 S-NORWOOD LONDRES, Royaume-Uni
9 127 GIORGALLA SERGE 05:11:37:900 E 3 314.88 paris, France
10 149 PEIRETTI LAURENT 05:11:44:650 D 5 314.84 VOISINS LE BRETONNEUX, FRANCE
11 48 SCHWAB PATRICK 05:11:50:470 E 4 314.81 ST BAUZILLE DE MONTMEL, FRANCE
12 103 FIRMIN THIERRY 05:11:56:296 D 6 314.78 CLAYE SOUILLY, FRANCE
13 80 MIDDLETON KEITH 05:12:00:403 E 5 314.76 LINCOLN, Royaume-Uni
14 196 THERISOD FREDERIC 05:12:16:876 D 7 314.67 SALIN LES THERMES, FRANCE
15 1197 WANNEZ DIMITRI 05:12:21:983 D 8 314.64 MONT DE L ENCLUS, BELGIQUE
16 19 TOUPENET STEPHANE 05:12:39:310 C 3 314.55 VALLIERE, FRANCE
18 175 LE DISSEZ CHRISTOPHE 05:13:54:406 C 4 314.14 MARCOUSSIS, FRANCE
20 176 RIENNE STEPHANE 05:14:03:960 D 11 314.10 PARIS, FRANCE
21 1205 MARLIER BERNARD 05:14:07:746 C 5 314.07 RENAIX, BELGIQUE
22 568 LEMAITRE THIERRY 05:14:13:656 C 6 314.04 SAMER, FRANCE
23 157 EXPEELS DANIEL 05:14:18:803 D 12 314.01 HOUPLIN-ANCOISSE, France
24 456 PAUCHET GILLES 05:14:24:370 C 7 313.98 SAINT BENOIT LA FORET, FRANCE
25 76 ANTZEMBERGER ANDRE 05:14:29:820 E 6 313.96 STRASBOURG, FRANCE
26 1218 MAERTENS THIERRY 05:14:35:896 D 13 313.92 URVILLIERS, FRANCE
27 133 CORCY JEAN MARC 05:14:40:623 E 7 313.90 SOISSONS, FRANCE
28 469 DHAUSSY FREDERIC 05:14:45:510 D 14 313.87 ST TRICAT, FRANCE
29 57 WILLIATTE HERVE 05:14:52:640 E 8 313.83 LOMPRET, France
30 115 POPOVICS PIERRE 05:14:57:296 E 9 313.81 BOULOGNE BILLANCOURT, FRANCE
31 59 LE BOUFFANT CLAUDE 05:15:03:626 D 15 313.77 LES COTES D AREY, FRANCE
32 165 PAINTER RUSSELL 05:15:09:063 C 8 313.74 ANERLEY, Royaume-uni
33 71 PRAT MAURICE 05:15:51:596 F 1 313.51 CORBAS, FRANCE
34 585 STANESCO JOEL 05:16:11:916 E 10 313.41 AUCALEUC, France
36 119 PONCHEL RICHARD 05:17:28:816 E 11 312.99 BURBURE, FRANCE
37 3201 SANNIER CHRISTOPHE 05:17:39:270 C 10 312.93 ABBEVILLE, FRANCE
38 557 FOSSE ANDRE 05:19:32:203 E 12 312.33 SOISSONS, FRANCE
39 239 THERON LAURENT 05:19:38:983 D 16 312.29 ST QUENTIN, FRANCE
40 108 DEHOUPE CLAUDE 05:19:46:533 E 13 312.25 COUDEKERQUE BRANCHE, FRANCE
41 1187 CSUKA OLIVIER 05:20:18:970 D 17 312.08 L'ILE ST DENIS, FRANCE
42 17 CARLIER FABRICE 05:20:25:760 C 11 312.04 HALLENCOURT, FRANCE
43 42 RAGUE AURELIEN 05:20:30:736 C 12 312.01 GUYANCOURT, FRANCE
44 63 MULLER SEILLER CHRISTINE 05:20:36:003 A 1 311.98 HAEGEN, France
45 244 PICHON PATRICK 05:20:42:523 D 18 311.95 ROMAINVILLE, FRANCE
46 107 EVERAERT MICHEL 05:21:04:846 D 19 311.83 COUDEKERQUE BRANCHE, FRANCE
47 145 BOUCHARD DIDIER 05:21:10:813 E 14 311.80 AUBERVILLE LA CAMPAGNE, FRANCE
48 40 COLIN STEPHANE 05:21:16:243 D 20 311.77 FREJUS, FRANCE
49 555 BAPE GERARD 05:21:21:000 D 21 311.74 MALAUNAY, FRANCE
50 234 LALOUETTE SEBASTIEN 05:21:40:326 C 13 311.64 EAUCOURT S/S, France
51 1231 BARRE OLIVIER 05:21:49:810 D 22 311.59 FONTAINE AU PIRE, FRANCE
52 131 MASSON BRUNO 05:21:54:456 D 23 311.56 DREUX, FRANCE
53 68 HUIS JOHAN 05:21:58:833 D 24 311.54 HALSTEREN, Pays-Bas
54 92 THORPE STUART 05:22:03:280 F 2 311.51 BRAINE LE CHATEAU, BELGIQUE
55 1211 CROMBEZ CHRISTOPHE 05:22:07:956 C 14 311.49 UCCLE, Belgique
56 114 SGARD ERIC 05:22:12:983 D 25 311.47 BOULOGNE S/MER, FRANCE
57 577 THERIER SEBASTIEN 05:22:18:683 C 15 311.43 AIRAINES, FRANCE
58 427 GIVELET J.CLAUDE 05:22:25:553 F 3 311.40 STE ADRESSE, FRANCE
59 550 BRIDLANCE JEAN-LOUIS 05:22:30:480 D 26 311.37 LE PERREUX SUR MARNE, FRANCE
60 383 VAN DOORN BART JAN 05:22:38:670 E 15 311.33 VIERPOLDERS, Pays-Bas
61 3211 FRISE FRANCIS 05:23:26:630 E 16 311.07 ABBEVILLE, FRANCE
62 110 JEANDEL FRANCIS 05:24:09:663 F 4 310.84 Mirecourt, France
63 137 TESTERS LEON 05:24:15:570 D 27 310.81 STEENBERGEN NB, Pays-Bas
64 87 HIMEUR FRANCIS 05:25:04:800 C 16 310.54 ORRY LA VILLE, FRANCE
65 138 TETAZ OLIVIER 05:27:53:103 D 28 309.63 MOUXY, France
66 3215 NESI CLAUDE 05:28:02:326 F 5 309.58 AMIENS, FRANCE
67 242 PAUCHET JOEL 05:28:21:463 E 17 309.48 SAILLY FLIBEAUCOURT, FRANCE
68 61 DREGAS HENRI 05:28:27:183 E 18 309.45 QUESSY, FRANCE
69 169 FOUQUET PASCAL 05:28:34:793 D 29 309.41 DESVRES, FRANCE
70 70 POREE CHRISTIAN 05:28:39:550 D 30 309.38 LA NEUVILLE EN HEZ, FRANCE
71 548 PONTHIER HUBERT 05:28:44:056 D 31 309.36 SPRIMONT, BELGIQUE
72 73 LAMBOTTE JEAN JACQUES 05:28:49:503 E 19 309.33 TILFF, BELGIQUE
73 178 THORROUT MICHEL 05:28:54:680 E 20 309.31 MAZY, BELGIQUE
74 184 WINTELER ERIC 05:29:00:520 D 32 309.27 ORMES, FRANCE
75 287 CENS GERARD 05:29:12:116 E 21 309.21 PLACHY BUYON, FRANCE
76 240 VIGUIER BERNARD 05:29:17:666 E 22 309.18 ST QUENTIN, FRANCE
77 112 BUSSCHAERT JEROME 05:29:24:273 C 17 309.14 THIANT, FRANCE
78 46 IEHL FREDERIC 05:29:29:260 D 33 309.12 PARIS, FRANCE
79 563 GOURGUECHON THIERRY 05:34:03:286 D 34 307.64 AILLY SUR SOMME, France
80 3207 GREMONT FREDERIC 05:34:14:530 C 18 307.58 ABBEVILLE, FRANCE
81 734 MACAIGNE PATRICE 05:34:29:713 E 23 307.50 HALLENCOURT, FRANCE
82 556 LOYNEL CYRILLE 05:34:46:880 E 24 307.41 SAHURS, FRANCE
83 83 VAN HOOF ROBERT 05:34:54:530 E 25 307.37 TREMELO, BELGIQUE
84 146 SARHAN REYNALD 05:34:57:843 C 19 307.35 BOSC ROGER EN ROUMOIS, FRANCE
85 147 GESLIN CHRISTOPHE 05:35:01:910 C 20 307.33 BOSC ROGER EN ROUMOIS, FRANCE
87 120 ENGLISH PETER 05:35:13:336 E 26 307.27 LINCOLN, Royaume-Uni
88 96 FRERES JOSEPH 05:35:16:570 E 27 307.25 VIELSALM, BELGIQUE
89 62 DUMONT GERVAIS 05:35:21:326 E 28 307.22 THUREY, FRANCE
90 45 PATOUX ALAIN 05:35:25:143 E 29 307.20 ESTREES ST DENIS, FRANCE
91 156 FIERS PATRICK 05:35:28:830 E 30 307.19 HOUPLIN ANCOISNE, FRANCE
92 457 DEMEY YANNICK 05:35:33:786 D 35 307.16 PARIS, FRANCE
93 90 GRANON FRANCOIS 05:35:37:940 E 31 307.14 LES MILLES, FRANCE
94 267 THOMAS ALBERT 05:37:17:536 F 6 306.60 TROIS-PONTS, BELGIQUE
95 89 LEUCKX MARC 05:37:52:183 D 36 306.41 LENNIK, BELGIQUE
96 930 BOIVIN DOMINIQUE 05:38:24:480 E 32 306.24 EPERNAY, FRANCE
97 214 OUTREBON CEDRIC 05:38:29:500 C 21 306.21 CREIL, FRANCE
98 322 ELLIOTT IAN BAUMANN HERVE 05:38:35:156 E 33 306.18 BOULOGNE, FRANCE
99 714 DHOLLANDER PIET 05:38:40:573 E 34 306.15 STEKENE, BELGIQUE
100 711 DE CAUWER MARC 05:38:46:383 F 7 306.12 SINT GILLIS WAAS, BELGIQUE
101 540 BAUMANN HERVE 05:38:49:496 D 37 306.11 PARIS, FRANCE
102 1169 HORTON JOE 05:38:54:203 C 22 306.08 BROMLEY KENT, Royaume-Uni
103 159 GAGER JEAN 05:38:58:800 G 1 306.06 LE GRAND QUEVILLY, FRANCE
104 716 FOUBERT BERT 05:39:03:366 F 8 306.03 NIEUWKERKEN, BELGIQUE
105 1188 GUILLERAULT PASCAL 05:39:07:433 E 35 306.01 LOUVRES, FRANCE
106 1215 VINCENT ERIC 05:39:10:940 D 38 305.99 NIVELLE, FRANCE
107 473 DESFOSSEZ RICHARD 05:39:15:393 D 39 305.97 COQUELLES, France
108 23 MOUNIER FREDERIC 05:39:24:576 C 23 305.92 CHEYSSIEU, FRANCE
109 155 CAPRON FREDERIC 05:39:29:806 C 24 305.89 FORT MAHON, FRANCE
110 72 HEITZ CLAUDE 05:39:34:320 F 9 305.86 CAUDEBEC LES ELBEUF, FRANCE
111 118 FOUQUET LAURENT 05:39:40:000 D 40 305.83 BEAUVAIS, FRANCE
112 22 ROCHE FABRICE 05:39:54:930 E 36 305.76 COMBS LA VILLE, FRANCE
113 928 VAN TILBORG DION A.M 05:39:59:336 D 41 305.73 ROTTERDAM, Pays-Bas
114 566 WIMART JACKY 05:40:03:153 F 10 305.71 DURY, FRANCE
115 75 YGOUT FRANCIS 05:40:07:660 E 37 305.69 BARENTIN, FRANCE
116 135 PEGUIN BERNARD 05:40:13:336 E 38 305.65 COUPVRAY, FRANCE
117 441 LINDER DENIS 05:40:16:803 D 42 305.64 LE TRAIT, FRANCE
118 536 REMNANT CHRISTOPHER 05:40:21:280 D 43 305.61 BIZE-MINERVOIS, FRANCE
119 920 CARLIER DIRK 05:40:24:403 D 44 305.60 VORSELAAR, BELGIQUE
120 542 BROOKS KEITH 05:40:27:980 F 11 305.58 CHURT FARNHAM SURREY, Royaume-Uni
121 283 POURCHEZ PHILIPPE 05:40:31:143 E 39 305.56 AMIENS, FRANCE
122 485 COURTOIS RAYMOND 05:40:34:640 F 12 305.54 SULLY, FRANCE
123 704 LESIEUTRE ANDRE 05:40:39:133 G 2 305.51 ROUEN, FRANCE
124 85 SEBRECHTS KEES 05:40:42:630 F 13 305.50 HALSTEREN, Pays-Bas
125 505 DUBROMEL CHRISTOPHE 05:40:45:843 D 45 305.48 RONCHIN, FRANCE
126 575 PETIT FRANCOIS 05:40:51:863 F 14 305.45 ABBEVILLE, FRANCE
127 424 OLLIER PATRICE 05:40:57:330 D 46 305.42 GANNAT, FRANCE
128 724 VAN DAMME TIMO 05:40:59:763 F 15 305.41 NIEUWKERKEN-WAAS, BELGIQUE
129 357 INKLEY RAY 05:41:03:820 F 16 305.38 LINCOLN, Royaume-Uni
130 715 DHOLLANDER RIK 05:41:06:833 E 40 305.37 NIEUWKERKEN-WAAS, BELGIQUE
131 1224 HANQUEZ J.MARIE 05:41:14:806 E 41 305.33 PERNES LES BOULOGNE, FRANCE
132 1165 TISSUT PHILIPPE 05:41:24:760 F 17 305.27 CRENEY PRES TROYES, FRANCE
133 580 FERNET VINCENT 05:41:30:260 C 25 305.24 MOREUIL, FRANCE
134 1202 BOURBIER JEAN-MICHEL 05:41:35:006 E 42 305.21 NOINTEL, FRANCE
135 151 DELHAYE REGIS 05:41:39:130 E 43 305.19 VILLENEUVE D'ASCQ, FRANCE
136 152 DURAND PHILIPPE 05:41:43:990 D 47 305.17 VILLENEUVE D'ASCQ, FRANCE
137 446 CALANDRI J.FRANCOIS 05:41:47:923 D 48 305.15 CLAMART, FRANCE
138 1194 POTEZ SEBASTIEN 05:42:19:580 C 26 304.98 CALAIS CIDEX, FRANCE
139 511 SIMONEAU ALAIN 05:42:25:180 E 44 304.94 VARENGEVILLE SUR MER, FRANCE
140 1190 RIVIERE FABRICE 05:42:46:680 C 27 304.83 QUEVAUVILLERS, FRANCE
141 708 POUJADE JEAN CLAUDE 05:45:28:390 E 45 303.96 PARIS, FRANCE
142 447 LOTTE LAURENT 05:45:35:620 E 46 303.92 PLEURS, FRANCE
143 168 TROY JACQUELINE 05:45:42:350 B 1 303.88 HENIN BEAUMONT, FRANCE
144 594 VASSEUR JEAN LOUIS 05:45:47:480 E 47 303.86 AMIENS, FRANCE
145 162 BLANQUET OLIVIER 05:45:53:596 D 49 303.82 QUIERY LA MOTTE, FRANCE
146 914 BOCQUET CHRISTIAN 05:45:57:293 E 48 303.80 ST POL SUR MER, FRANCE
147 256 HOCHART FREDERIC 05:46:02:540 D 50 303.78 SŠVRES, FRANCE
149 484 FOUDRIAT J.PIERRE 05:46:16:190 G 3 303.70 AUMALE, FRANCE
150 3202 NORMAND FRANCOIS 05:46:21:486 E 50 303.68 ABBEVILLE, FRANCE
151 530 THOMAS JONATHAN 05:46:28:626 D 51 303.64 GUILDFORD, Royaume-Uni
152 376 GREENALD TIMOTHY 05:47:22:413 C 28 303.35 STALYBRIDGE, Royaume-Uni
153 66 DEJA BERNARD 05:47:54:530 E 51 303.18 BOUSIGNIES, FRANCE
154 3203 MONIEZ JEAN 05:48:09:763 E 52 303.09 WANEL, FRANCE
156 60 ROGER MAURICE 05:48:44:423 G 4 302.91 COURS DE PILE, FRANCE
157 3205 LECOIN ARMAND 05:49:03:530 F 18 302.80 MIANNAY, FRANCE
158 81 ASHTON TIM 05:49:33:573 D 52 302.64 LINCOLN, Royaume-Uni
159 547 CARPENTIER FRANCIS 05:49:37:900 D 53 302.62 AYWAILLE, BELGIQUE
160 584 POIRET J.FRANCOIS 05:50:24:556 F 19 302.37 AIRAINES, FRANCE
161 3200 BOULLAND MICHEL 05:50:40:490 E 53 302.28 ABBEVILLE, FRANCE
162 1192 DUQUESNE STEPHANE 05:50:46:206 D 54 302.25 MOULLE, FRANCE
163 128 CHEVALIER SERGE 05:50:53:320 F 20 302.21 FONTENAY LE FLEURY, FRANCE
164 3217 CHIAPOLINI OLIVIER 05:50:58:456 D 55 302.19 LE PLESSIEL, FRANCE
165 317 LALLEMENT CHRISTIAN 05:51:15:110 E 54 302.09 STOUMONT, BELGIQUE
166 365 BLANQUET MARCEL 05:51:18:843 E 55 302.08 PLEINE SEVE, FRANCE
167 549 SERGENT CLAUDE 05:51:22:840 D 56 302.06 SOISY BOURG, FRANCE
169 1196 BONO THIERRY 05:51:32:323 D 57 302.00 WIMEUX, FRANCE
170 1195 LAURENT JEAN-FRANCOIS 05:51:38:873 E 56 301.97 WIMILLI, FRANCE
171 274 JACQUEMOUD DOMINIQUE 05:51:42:560 E 57 301.95 PONT DE METZ, FRANCE
172 116 LENOIR JOEL 05:51:46:623 F 22 301.93 ISBERGUES, FRANCE
173 531 BLUNDELL NEIL 05:51:52:323 D 58 301.89 Reading, Royaume-Uni
174 305 CHOQUET GUY 05:51:55:746 F 23 301.88 VILLERS BOCAGE, FRANCE
175 553 GOUPIL BENOIT 05:52:00:233 C 29 301.85 GRAND QUEVILLY, FRANCE
176 1193 DEMOUILLER JOEL 05:52:04:690 E 58 301.83 ESTREES, FRANCE
177 259 ROSSIGNOL ALAIN 05:52:09:176 E 59 301.80 LESQUIN, FRANCE
178 486 DEUX GUY 05:52:13:573 F 24 301.78 FRUCOURT, FRANCE
179 93 DESENCLOS DANIEL 05:53:37:353 E 60 301.33 LIMOURS, FRANCE
180 355 FRISSONG STEPHANE 05:54:46:023 D 59 300.96 MORGNY LA POMMERAYE, FRANCE
181 593 WILLOT THOMAS 05:54:55:986 C 30 300.91 ARRAS, FRANCE
182 592 WILLOT JEAN-BAPTISTE 05:55:01:443 C 31 300.88 ARRAS, FRANCE
183 318 BEGHIN PHILIPPE 05:55:08:053 E 61 300.84 BRUAY SUR L''ESCAUT, FRANCE
184 163 BOURIOT DOMINIQUE 05:55:31:076 D 60 300.72 ORSAY, FRANCE
185 432 LEMAITRE J.CLAUDE 05:55:46:480 F 25 300.64 CUCQ, FRANCE
186 303 LARDAUX J.CLAUDE 05:55:52:800 F 26 300.60 CHARLEVILLE MEZIERES, FRANCE
187 281 HEMBERT GILLES 05:56:04:196 E 62 300.54 AMIENS, FRANCE
188 47 BUREAU GILLES 05:56:34:090 E 63 300.38 GOUVIEUX, FRANCE
189 223 LAFORGE DIDIER 05:57:46:240 F 27 299.99 PARIS, FRANCE
190 581 TRIBAUDEAU LOUIS 05:57:50:960 F 28 299.97 DOULLENS, FRANCE
192 1219 LE RAY JEAN-CHARLES 05:58:18:440 D 62 299.82 NANTERRE, FRANCE
196 213 BOUCHER HERVE 05:58:59:006 D 64 299.60 SAILLY FLIBEAUCOURT, FRANCE
197 460 JACQUES MICHEL 05:59:32:906 F 30 299.42 AIRAINES, FRANCE
198 336 TAMPIGNY SYLVAIN 06:00:31:980 E 64 299.10 CAMON, FRANCE
199 428 FIERS PHILIPPE 06:00:35:846 E 65 299.08 CARVIN, FRANCE
200 572 IRVING BRUCE 06:00:40:773 D 65 299.06 LE HAVRE, FRANCE
201 713 DHOLLANDER BART 06:00:44:066 E 66 299.03 SINT-PAUWELS, BELGIQUE
202 67 DELAITRE PIERRE 06:00:49:436 F 31 299.01 WARLUIS, FRANCE
203 503 DELLACHERIE DANIEL 06:00:54:493 F 32 298.98 SECLIN, FRANCE
204 504 GOETHALS GILLES 06:00:59:030 D 66 298.95 RONCHIN, FRANCE
205 1220 FIERS OLIVIER 06:01:05:016 D 67 298.92 VALENCIENNES, FRANCE
206 1209 FIERS PASCAL 06:01:08:663 D 68 298.90 VANDONCOURT, FRANCE
207 552 BERTRON ALAIN 06:01:14:030 E 67 298.87 COSSE LE VIVIEN, FRANCE
208 1166 DELAIRE GERARD 06:01:19:320 F 33 298.85 LUYERES, FRANCE
209 69 STANTON DAVID 06:01:26:810 G 5 298.81 LONDON, Royaume-Uni
210 1203 DERISBOURG CHRISTIAN 06:01:29:873 E 68 298.79 HOUDAIN, FRANCE
212 529 HICKMOTT TONY 06:01:55:250 F 34 298.65 LONDRES, Royaume-Uni
213 578 HUBERT HERVE 06:02:00:586 E 69 298.63 BARENTIN, FRANCE
214 1191 VANOC BERTRAND 06:02:16:480 E 70 298.54 EPERLECQUES, FRANCE
215 272 BERNARD PHILIPPE 06:02:20:986 E 71 298.52 FRESSENNEVILLE, FRANCE
216 335 DELECROIX FRANCIS 06:02:26:423 E 72 298.49 WASQUEHAL, FRANCE
217 238 VERVAEKE GILLES 06:02:52:210 D 70 298.35 AIX EN PROVENCE, FRANCE
218 417 RODRIGUES LIONEL 06:02:56:910 D 71 298.32 SOISSONS, FRANCE
219 431 SANNIER JEAN LOUIS 06:03:02:606 E 73 298.29 AUPPEGARD, FRANCE
220 310 JUNGMANN FABRICE 06:04:11:316 D 72 297.92 ABBEVILLE, FRANCE
221 462 MARTY SERGE 06:04:38:663 D 73 297.78 PARIS, FRANCE
222 564 FLORY JOEL 06:04:44:973 D 74 297.74 GUISY, FRANCE
223 1213 MERCIER PATRICK 06:04:50:150 E 74 297.71 WATTRELOS, FRANCE
224 470 MARANT PHILIPPE 06:04:55:430 D 75 297.69 MARCK, FRANCE
225 170 VAAST CHRISTIAN 06:04:59:743 F 35 297.66 AMIENS, FRANCE
226 113 BUSSCHAERT MICHEL 06:05:01:186 E 75 297.65 THIANT, FRANCE
228 545 PAGE PHILLIP 06:05:11:080 C 32 297.60 CHILWORTH GUILDFORD, Royaume-Uni
229 729 WUYTACK ERIK 06:05:17:720 D 76 297.57 VRASENE/BEVEREN, BELGIQUE
230 721 NEIRYNCK PATRICK 06:05:22:006 D 77 297.54 STEKENE, BELGIQUE
231 190 GEERING PIERRE-ALAIN 06:05:30:940 E 76 297.50 LA CHAUX DE FONDS, SUISSE
233 298 LE BAIL PHILIPPE 06:05:43:430 E 78 297.43 HARGICOURT, FRANCE
234 216 NOZIERE BRUNO 06:05:47:243 D 78 297.40 EAUCOURT, FRANCE
235 395 QUEMIN DANY 06:05:51:180 E 79 297.38 BOOS, FRANCE
236 409 BOUVET LOUIS 06:05:55:546 F 37 297.36 MOYENNEVILLE, FRANCE
237 285 HEDIN JEAN-PIERRE 06:05:59:850 E 80 297.34 AMIENS, FRANCE
238 590 GUILLOSSON FREDERIC 06:06:10:046 D 79 297.28 ST QUENTIN LA MOTTE, FRANCE
239 507 BAUDELLE PATRICE 06:06:15:973 E 81 297.25 THIENNES, FRANCE
240 481 DARCOURT DOMINIQUE 06:06:21:923 E 82 297.22 CITERNES, FRANCE
241 330 MASTIN YVES 06:06:27:260 F 38 297.19 RAIMBEAUCOURT, FRANCE
242 252 LE BER PHILIPPE 06:06:32:520 D 80 297.16 ARGENTEUIL, FRANCE
243 391 MARDOC PHILIPPE 06:06:41:500 E 83 297.12 FRANQUEVILLE ST PIERRE, FRANCE
244 1170 HORTON CHARLES 06:07:01:460 F 39 297.01 BROMLEY, Royaume-Uni
245 79 FLEAR JOHN 06:07:14:250 G 6 296.94 LINCOLN, Royaume-uni
246 405 COLEAUX MICHEL 06:07:52:833 D 81 296.73 ESCAUDAIN, FRANCE
247 141 FERNET J.PAUL 06:09:17:466 F 40 296.28 MOREUIL, FRANCE
248 1221 EBERHARD GILBERT 06:09:26:060 E 84 296.23 LE HAVRE, FRANCE
249 390 LE ROUX J.FRANCOIS 06:11:10:950 E 85 295.67 JOUY LE MOUTIER, FRANCE
250 494 SZYMEZAK PIERRE 06:11:17:280 C 33 295.63 ROZOY SUR SERRE, FRANCE
251 367 PUTET ROLAND 06:11:25:460 F 41 295.59 LONS LE SAUNIER, FRANCE
252 1186 BIRON ALAIN 06:11:29:816 D 82 295.57 VILLENEUVE D ALLIER, FRANCE
253 720 NAUDTS FRANCOIS 06:11:37:690 E 86 295.52 NIEUWKERKEN-WAAS, BELGIQUE
254 444 PETIPAS ANDRé 06:11:56:506 F 42 295.42 BARETIN, FRANCE
255 382 LOTH J.MARC 06:12:01:903 E 87 295.39 DREUIL LES AMIENS, FRANCE
256 482 L HERMURIER GUILLAUME 06:12:52:676 C 34 295.12 FRESNOY-ANDAIVILLE, FRANCE
257 1217 DECOOPMAN BERNARD 06:13:14:256 F 43 295.00 ISBERGUES, FRANCE
258 215 MANCEAU DANIEL 06:14:29:053 E 88 294.60 FLEURIGNE, FRANCE
259 339 GRAF RENE 06:15:00:680 F 44 294.43 AYWAILLE, BELGIQUE
260 18 BOITIER JEAN CLAUDE 06:15:07:620 F 45 294.39 PARIS, FRANCE
261 554 DEIBER DOMINIQUE 06:15:12:756 D 83 294.37 AUBAGNE, FRANCE
262 275 LAFARGE DOMINIQUE 06:15:39:566 E 89 294.22 AMIENS, FRANCE
263 304 LESCUREUX JEAN 06:15:54:596 F 46 294.14 RAINNEVILLE, FRANCE
264 129 AINAGA JOSE 06:15:59:983 E 90 294.11 LES CLAYES SOUS BOIS, FRANCE
265 722 NEYRINCK BROER 06:16:04:540 E 91 294.09 SINAAI, BELGIQUE
266 30 OMONT ALBERT 06:16:13:073 E 92 294.04 SABRAS, France
267 523 GRISEL EDDY 06:16:18:610 C 35 294.01 MOUY, FRANCE
268 32 MOREAU JEROME 06:16:26:713 C 36 293.97 EAUCOURT SUR SOMME, FRANCE
269 521 WIDELKA J.CLAUDE 06:16:33:533 F 47 293.93 LAIGNEVILLE, FRANCE
270 1183 BUREAU ALAIN 06:16:38:200 F 48 293.90 LESSINES, BELGIQUE
272 522 GRISEL ALAIN 06:16:46:680 F 49 293.86 ST LEU D'ESSERENT, FRANCE
273 1230 BOUCHER ERIC 06:16:52:150 E 94 293.83 CORMEILLE EN PARISIS, FRANCE
274 567 PRUVOST RENE 06:16:58:640 F 50 293.80 MONDICOURT, FRANCE
275 903 SAINSBURY DOUGLAS 06:17:04:446 D 84 293.76 ACHIET LE GRAND, FRANCE
276 3208 JORAND FRANCOIS 06:17:11:280 D 85 293.73 ABBEVILLE, FRANCE
277 261 HEAPS MICHAEL 06:17:18:220 D 86 293.69 SAINTE CATHERINE, FRANCE
278 546 CAMPBELL STUART 06:18:44:040 F 51 293.23 SURREY, Royaume-Uni
279 271 BRECHER ROGER 06:18:53:163 F 52 293.18 MACHIEL, FRANCE
280 338 DELANNOY BERNARD 06:18:58:430 E 95 293.15 VRON, FRANCE
281 443 FILIPPONE VINCENT 06:19:03:470 F 53 293.12 LILLEBONNE, FRANCE
282 913 BOCQUET JOEL 06:19:13:173 D 87 293.07 ST POL SUR MER, FRANCE
283 915 DELAGE-MASQUER JEAN-CLAUDE 06:19:18:170 F 54 293.04 MONTARGIS, FRANCE
284 202 LEBEL PHILIPPE 06:19:40:440 E 96 292.93 ABBEVILLE, FRANCE
285 912 BRIOIT CEDRIC 06:19:45:680 C 37 292.90 ST POL SUR MER, FRANCE
286 911 COUSIN DANIEL 06:19:51:950 D 88 292.87 ST POL SUR MER, FRANCE
287 927 DE ZWART NIKO 06:20:56:603 C 38 292.52 DEN HAAG, Pays-Bas
288 901 DESJARDIN GERARD 06:21:01:810 G 7 292.49 HAUTVILLERS, FRANCE
289 1229 BATAILLE DENIS 06:21:34:556 D 89 292.31 MARSEILLE EN BEAUVAISIS, FRANCE
290 1223 BANAS THIERRY 06:21:42:596 D 90 292.27 ABBEVILLE, FRANCE
291 926 LLASAT MANUEL 06:21:53:223 E 97 292.21 AALST, BELGIQUE
292 200 PELLE DOMINIQUE 06:21:59:210 D 91 292.18 AIRAINES, FRANCE
293 309 JUNGMANN WILLIAM 06:22:25:940 E 98 292.04 ABBEVILLE, FRANCE
294 235 CAPELLARI DANIEL 06:22:35:093 F 55 291.99 ABBEVILLE, FRANCE
295 229 LETURCQ J.PIERRE 06:22:42:793 F 56 291.95 PONT DE METZ, FRANCE
296 1199 RAYER GERARD 06:22:50:053 E 99 291.90 CHEVINCOURT, FRANCE
297 364 DUFOUR J.MARIE 06:22:56:483 F 57 291.87 ST NICOLAS D'ALIERMONT, FRANCE
299 442 DUBUS FREDERIC 06:23:47:126 D 92 291.60 TANCARVILLE, FRANCE
300 53 TOHIER MICHEL 06:24:20:833 G 8 291.42 HERBLAY, FRANCE
301 100 PILBEAM DAVE 06:24:24:100 F 58 291.40 DENMEAD, Royaume-Uni
302 731 QUENU HERVE 06:24:29:326 E 101 291.37 HALLENCOURT, FRANCE
303 205 DUPONT J.CLAUDE 06:24:30:710 F 59 291.37 EAUCOURT, FRANCE
304 194 DEMEYER JACQUES 06:24:33:593 E 102 291.35 WALLON CAPPEL, FRANCE
306 358 BALEIRA ROGIERO 06:24:46:763 E 103 291.28 LE BLANC MESNIL, FRANCE
307 161 SUTTON VICTOR HERBERT 06:24:52:740 G 9 291.25 EAST YORKSHIRE, Royaume-Uni
309 565 KIK DICK 06:25:09:176 E 104 291.16 KRABBENDIJKE, Pays-Bas
310 188 BOUTE BENOIT 06:25:21:183 C 39 291.09 MARTHOD, FRANCE
311 471 TISSERAND FABRICE 06:25:27:070 D 94 291.06 CALAIS CIDEX, FRANCE
312 907 PARIN J.CLAUDE 06:25:32:070 E 105 291.03 AILLY SUR NOYE, FRANCE
313 201 LECOMTE JOEL 06:25:41:270 E 106 290.99 ABBEVILLE, FRANCE
314 334 DEGAUDEZ ROBERT 06:25:58:606 E 107 290.89 WASQUEHAL, FRANCE
315 333 LEBOURGEOIS CLAUDE 06:26:10:243 E 108 290.83 ORGERES, FRANCE
316 262 SAUVAGE ANDRE 06:26:16:720 D 95 290.80 WASQUEHAL, FRANCE
317 468 VANDAELE PHILIPPE 06:26:27:136 E 109 290.74 MORBECQUE, FRANCE
318 292 MOISSERON SERGE 06:26:31:363 F 60 290.72 BAR LE DUC, FRANCE
319 394 BOGAERT GASTON 06:26:32:603 F 61 290.71 MORBECQUE, FRANCE
320 918 DUCHEMIN BERNARD 06:26:36:700 D 96 290.69 VILLERS SUR MAREUIL, FRANCE
321 37 SANNIER PIERRE 06:26:38:813 E 110 290.68 QUESNOY LE MONTANT, FRANCE
322 10 ERMENAULT PHILIPPE 06:27:16:056 C 40 290.47 , FRANCE
323 28 MARIE THIERRY 06:27:18:410 D 97 290.46 MARTINVAST, France
324 38 SANNIER HENRI 06:27:19:943 F 62 290.46 PARIS, France
326 181 GUIDEZ JEAN MICHEL 06:27:29:076 F 63 290.40 LAMBERSART, France
327 307 MANACH FRANCOIS 06:27:36:026 E 112 290.37 HALLENCOURT, FRANCE
328 237 LALOUETTE LEON 06:27:40:903 E 113 290.35 ABBEVILLE CEDEX, FRANCE
329 211 CAILLY JEAN FRANCOIS 06:27:46:240 D 98 290.31 MOYENNEVILLE, FRANCE
330 199 DELIENNE CHRISTIAN 06:27:51:246 F 64 290.29 HALLENCOURT, FRANCE
331 25 MONEYRON GERARD 06:27:56:253 F 65 290.26 MORIGNY, FRANCE
332 218 HEULOT ALAIN 06:28:02:923 F 66 290.23 , FRANCE
333 21 MARECHAL ERIC 06:28:09:613 D 99 290.19 ERONDELLE, France
334 180 VALLEE JOSE 06:28:12:516 E 114 290.17 RUEIL, FRANCE
335 466 HARQUIN ALAIN 06:28:17:273 E 115 290.15 NAMPONT ST MARTIN, FRANCE
336 6 LOULIER LAURENT 06:28:19:246 D 100 290.13 PARIS, FRANCE
337 1168 STIEVENART EVENS 06:28:26:366 C 41 290.10 ST VALERY SUR SOMME, FRANCE
338 232 LE CARFF CLAUDE 06:28:31:476 E 116 290.07 ARRADON, FRANCE
339 8 BRUNET DAVID 06:28:39:466 C 42 290.03 RIBEAUCOURT, FRANCE
340 9 HOSCHSTATTER FRANCOIS 06:28:41:930 C 43 290.02 QUESNOY LE MONTANT, FRANCE
341 225 JAMIN SERGE 06:28:49:220 E 117 289.97 INGRE, FRANCE
342 106 GUIBOREL JEAN FRANCOIS 06:29:22:106 E 118 289.80 , France
343 123 CRIQUIOCHE J.PIERRE 06:29:46:713 F 67 289.67 ELBEUF, FRANCE
344 434 LAMOTTE MICHEL 06:29:47:703 F 68 289.66 GLISY, FRANCE
345 406 LECOMTE GUY 06:29:52:230 F 69 289.63 FEUQUIERES EN VIMEU, FRANCE
346 1177 LAGGER GERARD 06:29:55:116 F 70 289.62 ORCHIES, FRANCE
347 3213 SENE MICKAEL 06:33:56:183 C 44 288.32 ST RIQUIER, FRANCE
348 3214 THIBAUT VIRGILE 06:33:58:896 C 45 288.31 ABBEVILLE, FRANCE
349 916 DEMOUILLER PASCAL 06:34:17:443 D 101 288.21 VITRY EN ARTOIS, FRANCE
350 419 LAGERWEIJ MICHIEL 06:34:57:950 C 46 288.00 NOORDWIJKERHOUT, Pays-Bas
351 282 VAUDREVILLE GUY 06:35:03:390 E 119 287.96 VERS SUR SELLE, FRANCE
352 230 COCU JEAN-PAUL 06:35:04:680 E 120 287.96 ST OUEN, FRANCE
353 723 SMET ALBERT 06:35:13:683 F 71 287.91 SINT-NIKLAAS, BELGIQUE
354 204 GUILBERT ALAIN 06:35:21:686 F 72 287.87 PONT REMY, FRANCE
355 452 SMOLAREK J.PAUL 06:35:30:346 E 121 287.82 CAMPAGNE-LES-HESPIN, FRANCE
356 413 INDURAIN ROBERT 06:35:39:490 G 10 287.77 BEAUMONT LE ROGER, France
357 102 MARTIN ANDRE 06:35:44:660 G 11 287.74 VAUX EN BUGEY, FRANCE
358 433 DHUYSER GEORGES 06:35:51:536 E 122 287.70 HESDIN, FRANCE
359 474 DESMEDT FRANCIS 06:35:56:876 D 102 287.68 ESCOUSSENS, FRANCE
360 541 MANKA ANDRE 06:36:06:740 E 123 287.62 ROTHENFLUH, SUISSE
361 492 NOIZET XAVIER 06:36:09:823 C 47 287.61 REIMS, FRANCE
362 384 MORTIER GERARD 06:36:12:880 E 124 287.59 AMIENS, FRANCE
363 20 GOUARD ANICK 06:36:37:163 B 2 287.46 PETIT APPEVILLE, FRANCE
364 265 PERONE RAFFAELE 06:37:35:406 E 125 287.14 COLLEGIEN, FRANCE
365 296 BILDE ALAIN 06:38:30:206 F 73 286.85 TALMAS, FRANCE
366 1233 VANDAMME J.MICHEL 06:39:35:780 E 126 286.50 LONGUENESSE, FRANCE
367 475 SOUPLY JEAN MARC 06:39:43:580 F 74 286.46 ABBEVILLE, FRANCE
368 702 HELY J.MICHEL 06:39:53:026 E 127 286.40 ST GRATIEN, FRANCE
369 500 GATOUX PHILIPPE 06:39:55:090 D 103 286.39 NOYELLES EN CHAUSSEE, FRANCE
370 388 CORNEZ FRANCOIS 06:41:12:150 E 128 285.98 LONGUEAU, FRANCE
371 368 WEIMAR JEROEN 06:42:15:970 C 48 285.64 LONDON, Royaume-Uni
372 373 COPPARD JAMES 06:42:18:533 D 104 285.62 NR HERTFORD HERTS, Royaume-Uni
373 906 DARRAS GUYLAIN 06:42:20:256 F 75 285.61 HALLENCOURT, FRANCE
374 374 CROPPER LYNNE 06:42:25:343 B 3 285.59 NR HERTFORD HERTS, Royaume-Uni
375 369 WEIMAR TRACY 06:42:33:446 A 2 285.54 LONDON, Royaume-Uni
376 324 OUTREBON CHRISTOPHE 06:42:35:870 D 105 285.53 CRAMONT, FRANCE
377 251 TOULEAU J.YVES 06:42:39:463 F 76 285.51 DRANCY, FRANCE
378 725 VAN DEN BRANDEN ODILON 06:42:47:226 G 12 285.47 BEL SELE, BELGIQUE
379 210 MILAN J.PIERRE 06:43:41:393 E 129 285.18 PONTREMY, FRANCE
380 99 CHANIN NEVILLE 06:44:29:813 G 13 284.92 STROUD, Royaume-Uni
381 458 AUGER PASCAL 06:44:32:746 D 106 284.90 ENGHIEN LES BAINS, FRANCE
382 258 NISIN CHRISTOPHE 06:44:34:690 D 107 284.89 MONTMAGNY, FRANCE
383 209 AMOURETTE BERNARD 06:44:37:943 F 77 284.88 PONT REMY, FRANCE
385 1234 MARECHAL J.FRANCOIS 06:44:55:410 E 130 284.78 RAINVILLIERS, FRANCE
386 171 BORDE RENE 06:45:04:813 G 14 284.73 AVRANCHES, FRANCE
387 501 GATOUX FRAN€OIS 06:45:10:393 D 109 284.70 FROYELLES, FRANCE
388 308 LEDEZ FREDERIC 06:45:58:823 C 49 284.44 HALLENCOURT, France
389 902 SUEUR JOSEPH 06:46:00:743 F 78 284.43 VRON, FRANCE
390 905 MIGNOT MICHEL 06:46:08:106 E 131 284.39 MONTMAIN, FRANCE
391 587 JACQUET WILLIAM 06:46:18:270 E 132 284.33 PONT DE L ARCHE, FRANCE
392 294 MILLER JOHN 06:47:17:943 F 79 284.02 .CAVERSHAM, Royaume-Uni
393 320 GROUT SERGE 06:47:21:450 F 80 283.99 AUBERVILLE LA CAMPAGNE, FRANCE
394 732 POUX PASCAL 06:47:35:790 C 50 283.92 SAIGNEVILLE, FRANCE
395 426 GAUTHIER BERNARD 06:47:39:036 E 133 283.90 LE BOISLE, FRANCE
396 345 RODRIGUES MONIQUE 06:47:43:020 B 4 283.88 PLESSIER ROZAINVILLERS, FRANCE
397 306 CARON JACKY 06:47:51:193 F 81 283.83 FOUILLOY, FRANCE
398 270 BERTHE ALAIN 06:47:58:053 F 82 283.80 DOULLENS, FRANCE
399 195 LOOSEN DOMINIQUE 06:48:00:646 E 134 283.79 TERDEGHEM, FRANCE
400 478 BOURBON J.MARC 06:48:09:620 E 135 283.74 ABBEVILLE, FRANCE
401 56 TANGUY LUC 06:49:03:396 E 136 283.45 COMBS LA VILLE, FRANCE
402 445 FAELENS J.PIERRE 06:49:10:366 E 137 283.41 BEAUVAIS, FRANCE
403 300 DEVISMES J.FRANCOIS 06:49:43:353 E 138 283.23 PONT REMY, FRANCE
404 404 GOZET DANIEL 06:50:11:663 F 83 283.08 DUNKERQUE, FRANCE
405 354 DOUVILLE GERARD 06:50:30:250 E 139 282.98 HAUTE EPINE, FRANCE
406 342 SISCARO LOUIS 06:50:32:043 F 84 282.97 LAGNY LE SEC, FRANCE
407 582 HUBERT ALAIN 06:52:26:230 F 85 282.35 BARENTIN, FRANCE
408 233 SATRE GEORGES 06:52:37:976 G 15 282.30 STE COLOMBE, FRANCE
409 1222 DESBROSSE FRANCOIS 06:52:40:770 F 86 282.28 CONGY, FRANCE
410 193 DECLERCK PAUL 06:52:46:186 E 140 282.25 HONDEGHEM, FRANCE
411 551 SOUPIZON ALAIN 06:52:48:910 E 141 282.24 SOISSONS, FRANCE
412 497 DETRY SERGE 06:52:53:666 G 16 282.21 VAUMOISE, FRANCE
413 402 HARDY ALAIN 06:52:55:810 E 142 282.20 ST NICOLAS D'ALIERMONT, FRANCE
414 464 LEROUX J.YVES 06:53:03:350 E 143 282.15 HERICOURT EN CAUX, FRANCE
415 398 PEIFFER THIERRY 06:53:39:043 D 110 281.96 NEUVILLE ST AMAND, FRANCE
416 904 JONATHAN NUNNEY 06:54:24:076 E 144 281.72 UB BB UXBRIDGE, Royaume-Uni
417 392 SPOOREN CHRIS 06:55:04:696 E 145 281.50 BRENGEL, Pays-Bas
418 437 GUERNUT J.PIERRE 06:56:18:513 D 111 281.11 ST QUENTIN, FRANCE
419 416 LECLERCQ MICHEL 06:56:27:906 E 146 281.06 PINON, FRANCE
420 539 DEHAUDT ALBERT 06:56:33:053 F 87 281.03 MORBECQUE, FRANCE
421 502 FOUQUET DANIEL 06:56:35:096 E 147 281.01 COLOMBES, France
422 278 ROUSSEL RAYMOND 06:56:38:880 E 148 281.00 VERS SUR SELLE, FRANCE
423 421 BUGNON MURYS ALAIN 06:56:56:036 D 112 280.90 ST JULIEN LES VILLAS, FRANCE
424 706 SCHILLER RENE 06:57:01:093 E 149 280.88 SAINT PATRICE, FRANCE
425 707 SCHILLER CLAUDE 06:57:10:286 G 17 280.83 ORCHIES, FRANCE
426 331 LEBLOND MICHEL 06:57:11:710 F 88 280.82 FEUCHY, FRANCE
427 356 FACHE THIERRY 06:58:03:703 D 113 280.54 AIGNE, FRANCE
428 520 VALDIN ANDR 06:59:37:096 G 18 280.04 MOGNEVILLE, FRANCE
430 525 LEULIER MARC 07:02:13:083 E 150 279.20 MERARD-BURY, FRANCE
431 524 PATTEEUW RAYMOND 07:02:16:636 E 151 279.18 MONCHY ST ELOI, FRANCE
432 919 STREET MICHAEL 07:02:28:883 G 19 279.12 BENFLEET, Royaume-Uni
433 423 PELLAN BERNARD 07:02:38:610 G 20 279.06 CESSON SEVIGNE, FRANCE
434 284 JOLY YVES 07:03:16:323 F 90 278.86 PROUZEL, FRANCE
435 269 FAURE JEAN CLAUDE 07:03:29:563 E 152 278.79 PUSSAY, FRANCE
436 1171 VEILLERETTE FRANCOIS 07:04:04:463 D 114 278.60 ST DENISCOURT, FRANCE
437 1172 HORNOY REMI 07:04:06:656 D 115 278.59 NAMPONT ST MARTIN, FRANCE
438 1162 EECKHOUT PATRICE 07:05:00:583 C 51 278.30 SAILLY BRAY, FRANCE
439 343 LE GOFF FRANCOIS 07:06:18:383 E 153 277.88 PETIT CAMON, FRANCE
440 488 DRUART CHRISTINE 07:06:23:360 B 5 277.85 MONTCORNET, FRANCE
441 286 BONNECHERE FRANCOIS 07:06:40:726 E 154 277.76 RUMIGNY, FRANCE
442 1180 LEMIRE ERIC 07:06:52:393 D 116 277.70 STE GENEVIEVE, FRANCE
443 1179 BAUSSART THIERRY 07:07:02:056 D 117 277.64 BERTHECOURT, FRANCE
444 493 RAVAUX LUC 07:07:10:730 E 155 277.60 CHAOURSE, FRANCE
446 150 MARIETTE SERGIO 07:07:26:843 G 21 277.51 SECLIN, FRANCE
447 519 PICCOLI BERNARD 07:07:29:396 F 92 277.50 LAIGNEVILLE, FRANCE
448 1181 RAMPAL CLAUDE 07:07:44:006 E 156 277.42 CREIL, FRANCE
449 1178 LAMBIN LAURENT 07:07:47:423 D 118 277.40 BERTHECOURT, FRANCE
450 727 VAN HOOSTE WILFRIED 07:07:59:980 F 93 277.34 STEKENE, BELGIQUE
451 717 FRANCKAERT RAOUL 07:08:04:536 F 94 277.31 SINT GILLIS WAAS, BELGIQUE
452 182 COLAS JACQUES 07:08:20:030 F 95 277.22 MAGNY LES HAMEAUX, FRANCE
454 459 LEMAITRE CLAUDE 07:09:10:943 F 96 276.96 , FRANCE
455 1175 LAMOTTE PASCAL 07:09:13:006 C 52 276.94 GLISY, FRANCE
456 362 FEDERICO ANGELO 07:09:26:666 D 119 276.87 DRANCY, FRANCE
457 142 FARGUES HENRI 07:09:34:736 F 97 276.83 MURAT SUR VERBE, FRANCE
458 143 FARGUES CLAUDINE 07:09:41:766 B 6 276.79 MURAT SUR VEBRE, FRANCE
459 268 CORNE PHILIPPE 07:09:54:766 F 98 276.72 ALLONVILLE, France
460 544 WAKELIN PETER 07:10:18:400 C 53 276.59 , Royaume-Uni
461 1176 WAKELIN JAMES 07:10:26:500 C 54 276.55 SHEFFIELD, Royaume-Uni
462 733 THIBAULT ROLAND 07:10:49:436 F 99 276.42 MONTRIOND, FRANCE
463 479 CHOPIN REGIS 07:11:07:810 F 100 276.33 ABBEVILLE, FRANCE
464 477 PIERRE FRANCIS 07:11:38:296 F 101 276.16 ABBEVILLE, FRANCE
465 429 PAPIN MARIAM 07:11:49:580 C 55 276.10 AILLY LE HAUT CLOCHER, FRANCE
466 197 BERTHELOT DANY 07:11:54:650 D 120 276.07 AIRAINES, FRANCE
467 1173 AUBERGER MARIUS 07:12:31:940 F 102 275.88 CHOISY LE ROI, FRANCE
468 591 CHATELLARD BERNARD 07:14:39:466 F 103 275.19 VEYRIER DU LAC, FRANCE
469 241 PACAUT PATRICK 07:16:23:163 D 121 274.63 BELLE RIVE SUR ALLIER, FRANCE
470 340 DEVOYE PATRICK 07:16:27:560 E 157 274.61 FREUCHY, France
471 1182 TATERMAN JOEL 07:18:11:020 E 158 274.05 SOIGNIES, BELGIQUE
473 908 DERAMBURE J.PAUL 07:20:45:250 E 159 273.22 LA FERTE ST AUBIN, FRANCE
474 496 HUYSENTRUYT ERIC 07:20:55:766 D 122 273.17 PARFONDEVAL, FRANCE
475 439 LESAGE LUDOVIC 07:20:58:440 D 123 273.15 CARRIERES SUR SEINE, FRANCE
476 490 DUCROT HENRI 07:21:02:416 G 22 273.13 SISSONNE, FRANCE
477 370 ALLAWAY JOHN 07:21:04:810 D 124 273.12 CHINNOR, Royaume-Uni
478 465 LE HENNAF SEBASTIEN 07:23:00:536 C 56 272.49 SAINT DENIS, FRANCE
479 126 KOEHLER EGON 07:23:53:180 G 23 272.21 WOLFEGG, ALLEMAGNE
481 600 JORAND PHILIPPE 07:25:29:340 D 125 271.69 ABBEVILLE, FRANCE
482 574 CLEMENT MICHEL 07:25:44:780 E 160 271.61 ABBEVILLE, FRANCE
483 1206 CATTEZ PIERRE 07:25:50:600 E 161 271.58 STE MARIE CAPPEL, FRANCE
484 1208 MEAUSOONE GABRIEL 07:25:58:650 F 105 271.54 NIEPPE, FRANCE
485 1207 LEBLEU MICHEL 07:26:03:730 G 25 271.51 CASSEL, FRANCE
486 499 LEVASSEUR PATRICIA 07:26:48:433 A 3 271.27 NEUFCHATEL EN BRAY, FRANCE
487 319 DELABROYE ROGER 07:27:01:863 F 106 271.20 LE BOISLE, FRANCE
488 187 ROCHER DENIS 07:27:36:273 E 162 271.01 JARGEAU, France
489 559 GUAZ GERARD 07:28:32:273 E 163 270.71 ST MARD, FRANCE
490 425 TABARY PHILIPPE 07:28:39:753 D 126 270.67 EU, FRANCE
491 558 VAUCONSANT ALAIN 07:28:47:796 E 164 270.63 ST MARD, FRANCE
492 498 NOLIUS JEROME 07:30:26:196 E 165 270.09 ST LEGER AUX BOIS, FRANCE
493 516 PAIRAULT MARC 07:31:20:553 G 26 269.80 VERSAILLES, FRANCE
494 515 PAIRAULT FABRICE 07:31:29:486 D 127 269.76 LONGPONT SUR ORGE, FRANCE
495 1174 VESTEGHEM CLAUDE 07:33:01:070 D 128 269.26 YONVAL, FRANCE
496 929 SCELLIER CLAUDE 07:34:52:020 F 107 268.66 SALEUX, FRANCE
497 932 STAUB NICOLAS 07:34:59:360 D 129 268.63 SALOUEL, FRANCE
498 1210 BERNE PHILIPPE 07:35:08:963 E 166 268.58 HOLNON, FRANCE
499 931 FLICOURT LAURENT 07:35:19:066 D 130 268.52 ABBEVILLE, FRANCE
500 512 DEPREUX DOMINIQUE 07:35:29:173 F 108 268.46 LE HAVRE, FRANCE
501 569 BALLATOUR PATRICK 07:35:37:433 D 131 268.42 ISSY LES MOULINEAUX, FRANCE
502 570 VERKINDT BERNARD 07:35:48:580 D 132 268.36 ISSY LES MOULINEAUX, FRANCE
503 401 LECOMTE MAURICE 07:36:26:856 G 27 268.16 ABBEVILLE, FRANCE
504 728 VAN MIEGHEM GUY 07:36:41:786 E 167 268.08 SINT-NIKLAAS, BELGIQUE
505 925 FOUCONNIER ALEXANDRE 07:36:58:210 C 57 267.99 GOPENNES, FRANCE
506 924 PLET ROBERT 07:37:12:020 F 109 267.91 DOMVAST, FRANCE
507 219 GOMEZ DIDIER 07:38:28:500 E 168 267.50 RENNES, FRANCE
508 134 PRESSON PASCAL 07:43:17:706 E 169 265.95 VILLERS COTTERETS, FRANCE
509 513 CHARLES JEAN 07:47:18:923 E 170 264.65 HAUTEVILLE SUR MER, FRANCE
510 571 DEWULF PAUL 07:48:41:170 F 110 264.21 ANMGEULLIN, FRANCE
512 922 BOIVIN JOEL 07:52:48:156 D 133 262.88 ABBEVILLE, FRANCE
513 923 DUPUIS JEAN-LUC 07:54:39:176 C 58 262.28 PONT REMY, FRANCE
514 293 OXLEY STEVE 07:56:53:140 E 171 261.56 THATCHAM, Royaume-Uni
515 264 RENOU PIERRE YVES 08:00:56:290 E 172 260.25 ST AUBIN DES LANDES, FRANCE
516 379 WACH JEAN-PIERRE 08:02:03:826 D 134 259.89 ST AUGUSTIN, FRANCE
517 703 TANGUY FREDERIC 08:08:27:896 D 135 257.83 CHAMPLAT-BOUJACOURT, FRANCE
518 1204 LAISNE ANDRE 08:08:39:913 F 111 257.76 GUEUX, FRANCE
520 1161 LOURDEL DANIEL 08:13:52:073 F 112 256.08 AIRAINES, FRANCE
521 206 KUENHEN GEORGES 08:16:49:070 F 113 255.13 EAUCOURT, FRANCE
522 430 DELAPORTE ANGE 08:17:13:483 F 114 255.00 LONG, FRANCE
523 489 DRUART MICHEL 08:19:20:686 F 115 254.32 MONTCORNET, FRANCE
524 495 VERMAEREN ANDRE 08:19:30:260 E 173 254.26 MONTCORNET, FRANCE
525 491 LEGROS JEAN-MARIE 08:19:53:623 F 116 254.14 MONTCORNET, FRANCE
526 935 DELABROYE CLAUDE 08:21:28:250 F 117 253.63 MAREUIL CAUBERT, FRANCE
527 936 FLICOURT JACQUES 08:21:35:680 E 174 253.59 ABBEVILLE, FRANCE
528 160 LEMAITRE CLAUDE 08:23:08:543 E 175 253.09 BOURSEVILLE, FRANCE
529 207 GUETRE BERNARD 08:23:22:363 F 118 253.02 ABBEVILLE, FRANCE
530 436 PATE JACQUES 08:26:46:196 F 119 251.92 LEVERGIES, FRANCE
531 438 PATE DIDIER 08:27:01:090 D 136 251.84 ST QUENTIN, FRANCE
532 122 GREBNER BARDO 08:27:51:750 G 29 251.57 MAINZ, ALLEMAGNE
533 380 NUGENT DOMINIC 08:48:50:270 E 176 244.80 DROGHEDA COLOUTH, IRLANDE
534 381 MC ALEER GERRY 08:48:59:023 F 120 244.75 DROGHEDA COLOUTH, IRLANDE
535 448 CARON JEAN-PIERRE 08:57:41:526 E 177 241.94 CAMPIGNEULLES LES PETITES, FRANCE
536 450 FOUCHER PATRICK 08:57:54:723 E 178 241.88 MARESQUEL, FRANCE
537 937 TELLIER YVES 08:57:59:750 F 121 241.85 ABBEVILLE, FRANCE
538 302 BACQUET PASCAL 09:04:26:496 D 137 239.77 CITERNES, FRANCE
539 301 BACQUET LIONEL 09:04:36:630 E 179 239.71 LONGPRE LES CORPS SAINTS, FRANCE
540 576 LEROY J.PAUL 09:13:38:170 F 122 236.80 AMIENS, FRANCE

GF Gassin Golfe de Saint Tropez

Après une saison 2020 très particulière et face à cette pandémie qui s'étire en longueur, nous avons dû nous adapter.

Ainsi, c'est avec beaucoup de regrets que nous vous annonçons que GF Gassin Golfe de Saint Tropez ne sera pas organisée en 2021.

Nous travaillons afin que vous puissiez relever le défi de manière alternative.

Nous vous tiendrons informés.
TOP